Location: Kermapucano
(48.0667°N, 3.3000°W)
Time: 20:55:40
(UTC+00:00)

CENTAUR R/B - Pass Details

Date: 29 November 2020
Orbit: 750 x 1438 km, 63.4° (Epoch: 11 January)

Event Time Altitude Azimuth Distance (km) Brightness Sun altitude
Exits shadow 04:01:37 72° 155° (SSE) 1,446 3.2 -35.7°
Drops below altitude 10° 04:09:24 10° 145° (SE) 3,535 5.7 -34.4°
Sets 04:12:23 0° 145° (SE) 4,516 6.3 -33.9°
